Location: Hoyos del Collado
(40.3594°N, 5.2003°W)
Time: 13:47:14
(UTC+00:00)

Okean O Rocket - Pass Details

Date: 18 April 2024
Orbit: 619 x 639 km, 98.1° (Epoch: 26 May)

Event Time Altitude Azimuth Distance (km) Brightness Sun altitude
Exits shadow 19:25:04 - 129° (SE) 2,491 4.1 -4.8°
Reaches altitude 10° 19:26:31 10° 119° (ESE) 1,995 3.5 -5.1°
Maximum altitude 19:29:55 23° 67° (ENE) 1,341 2.9 -5.7°
Drops below altitude 10° 19:33:21 10° 15° (NNE) 2,016 4.3 -6.3°
Sets 19:35:55 0° 1° (N) 2,932 5.3 -6.7°
